weather.gov     
National Weather Service

Terminal Aerodrome Forecast
NWS Homepage
This page is being discontinued on March 12, 2014.
The same data is available at this site. Please update your bookmarks.
Thank you, and we apologize for the inconvenience.
Please send an email to SR-SRH.Webmaster@noaa.gov with any concerns.


Current Version
Previous Version:    01  02  03  04  05  06  07  08  09  10  11  12  13  14  15  16  17  18  19  20  21  22  23  24  25  26  27  28  29  30  
   31  
[Printable]
331
FTUS42 TJSJ 190500
TAFJBQ
TAF
TJBQ 190528Z 1906/2006 12003KT P6SM SCT030 BKN080
     FM191400 08013KT P6SM SCT025
     FM191700 07014G21KT P6SM SCT025
      TEMPO 1917/1921 VRB15G25KT 4SM TSRA OVC025CB
     FM192300 09008KT P6SM SCT025 BKN070
      AMD NOT SKED TIL 191100=


U.S. Dept. of Commerce
NOAA National Weather Service
1325 East West Highway
Silver Spring, MD 20910
E-mail: w-nws.webmaster@noaa.gov
Page last modified: May 16, 2007
NATIONAL WEATHER SERVICE: for Safety, for Work, for Fun - FOR LIFE